Location: Gleizolles
(44.4833°N, 6.7667°E)
Time: 16:16:46
(UTC+00:00)

STARLINK-1216 - Pass Details

Date: 09 April 2020
Orbit: 549 x 551 km, 53.0° (Epoch: 05 June)

Event Time Altitude Azimuth Distance (km) Brightness Sun altitude
Rises 20:14:08 0° 303° (WNW) 2,785 8.8 -20.9°
Reaches altitude 10° 20:16:24 10° 306° (NW) 1,884 7.5 -21.2°
Maximum altitude 20:20:42 73° 31° (NNE) 603 3.7 -21.8°
Enters shadow 20:21:07 66° 77° (ENE) 627 3.6 -21.9°
